• In Hungary
  • List of Countries
  • For 7 days
  • Water Temperature
  • Satellite Maps
  • Weather Map
  • News
  • Weather Widgets
  • user-avatar
    Login

    Hourly Weather Rybnica

    Today, 18 August, Saturday

    Time Temperature Precipitation Wind Pressure Humidity
    00:00 +20°C° 0 mm 2 mps 727 mmHg 61%
    01:00 +19°C° 0 mm 2 mps 727 mmHg 61%
    02:00 +19°C° 0 mm 2 mps 727 mmHg 66%
    03:00 +18°C° 0 mm 2 mps 727 mmHg 71%
    04:00 +18°C° 0 mm 2 mps 727 mmHg 77%
    05:00 +18°C° 0.2 mm 2 mps 728 mmHg 78%
    06:00 +19°C° 0.2 mm 2 mps 728 mmHg 78%
    07:00 +19°C° 0.2 mm 2 mps 729 mmHg 79%
    08:00 +20°C° 0.1 mm 2 mps 729 mmHg 75%
    09:00 +21°C° 0.1 mm 2 mps 729 mmHg 71%
    10:00 +23°C° 0.1 mm 2 mps 730 mmHg 67%
    11:00 +25°C° 0 mm 2 mps 730 mmHg 61%
    12:00 +26°C° 0 mm 2 mps 730 mmHg 56%
    13:00 +28°C° 0 mm 2 mps 730 mmHg 50%
    14:00 +28°C° 0 mm 2 mps 730 mmHg 49%
    15:00 +28°C° 0 mm 2 mps 730 mmHg 47%
    16:00 +28°C° 0 mm 2 mps 730 mmHg 46%
    17:00 +27°C° 0 mm 2 mps 730 mmHg 52%
    18:00 +25°C° 0 mm 2 mps 729 mmHg 58%
    19:00 +23°C° 0 mm 1 mps 729 mmHg 65%
    20:00 +22°C° 0.1 mm 1 mps 730 mmHg 68%
    21:00 +21°C° 0.1 mm 1 mps 730 mmHg 71%
    22:00 +20°C° 0.1 mm 1 mps 730 mmHg 75%
    23:00 +20°C° 0 mm 1 mps 730 mmHg 77%

    Tomorrow, 19 August, Sunday

    Time Temperature Precipitation Wind Pressure Humidity
    00:00 +19°C° 0 mm 1 mps 730 mmHg 78%
    01:00 +19°C° 0 mm 1 mps 730 mmHg 80%
    02:00 +18°C° 0 mm 1 mps 730 mmHg 81%
    03:00 +18°C° 0 mm 1 mps 730 mmHg 82%
    04:00 +18°C° 0 mm 1 mps 730 mmHg 83%
    05:00 +17°C° 0 mm 0 mps 730 mmHg 79%
    06:00 +18°C° 0 mm 0 mps 731 mmHg 75%
    07:00 +20°C° 0 mm 0 mps 731 mmHg 70%
    08:00 +23°C° 0 mm 1 mps 731 mmHg 64%
    09:00 +25°C° 0 mm 1 mps 731 mmHg 58%
    10:00 +27°C° 0 mm 1 mps 731 mmHg 52%
    11:00 +28°C° 0.1 mm 1 mps 731 mmHg 50%
    12:00 +28°C° 0.1 mm 1 mps 731 mmHg 48%
    13:00 +29°C° 0.1 mm 1 mps 731 mmHg 45%
    14:00 +29°C° 0 mm 1 mps 730 mmHg 45%
    15:00 +29°C° 0 mm 1 mps 730 mmHg 46%
    16:00 +28°C° 0 mm 1 mps 730 mmHg 46%
    17:00 +27°C° 0 mm 1 mps 729 mmHg 52%
    18:00 +25°C° 0 mm 1 mps 729 mmHg 58%
    19:00 +24°C° 0 mm 1 mps 729 mmHg 64%
    20:00 +23°C° 0 mm 1 mps 729 mmHg 66%
    21:00 +22°C° 0 mm 1 mps 729 mmHg 69%
    22:00 +21°C° 0 mm 1 mps 729 mmHg 71%
    23:00 +21°C° 0 mm 1 mps 729 mmHg 72%

    Day after tomorrow, 20 August, Monday

    Time Temperature Precipitation Wind Pressure Humidity
    00:00 +21°C° 0 mm 1 mps 728 mmHg 74%
    01:00 +20°C° 0 mm 1 mps 728 mmHg 75%
    02:00 +20°C° 0 mm 1 mps 728 mmHg 76%
    03:00 +20°C° 0 mm 1 mps 728 mmHg 77%
    04:00 +20°C° 0 mm 1 mps 727 mmHg 78%
    05:00 +21°C° 0 mm 1 mps 728 mmHg 74%
    06:00 +22°C° 0 mm 1 mps 728 mmHg 71%
    07:00 +23°C° 0 mm 1 mps 728 mmHg 68%
    08:00 +24°C° 0 mm 1 mps 728 mmHg 62%
    09:00 +26°C° 0 mm 2 mps 728 mmHg 56%
    10:00 +28°C° 0 mm 2 mps 728 mmHg 50%
    11:00 +28°C° 0 mm 3 mps 728 mmHg 47%
    12:00 +29°C° 0 mm 3 mps 728 mmHg 45%
    13:00 +30°C° 0 mm 3 mps 727 mmHg 42%
    14:00 +29°C° 0 mm 3 mps 727 mmHg 42%
    15:00 +29°C° 0 mm 4 mps 727 mmHg 43%
    16:00 +29°C° 0 mm 4 mps 727 mmHg 43%
    17:00 +27°C° 0 mm 3 mps 727 mmHg 50%
    18:00 +26°C° 0 mm 3 mps 727 mmHg 56%
    19:00 +24°C° 0 mm 3 mps 727 mmHg 63%
    20:00 +22°C° 0 mm 3 mps 727 mmHg 67%
    21:00 +20°C° 0 mm 2 mps 727 mmHg 71%
    22:00 +19°C° 0 mm 2 mps 727 mmHg 76%
    23:00 +19°C° 0 mm 2 mps 728 mmHg 79%

    21 August, Tuesday

    Time Temperature Precipitation Wind Pressure Humidity
    00:00 +18°C° 0 mm 2 mps 728 mmHg 81%
    01:00 +18°C° 0 mm 2 mps 728 mmHg 84%
    02:00 +17°C° 0 mm 2 mps 728 mmHg 86%
    03:00 +17°C° 0 mm 2 mps 728 mmHg 89%
    04:00 +16°C° 0 mm 2 mps 728 mmHg 92%
    05:00 +17°C° 0 mm 2 mps 729 mmHg 88%
    06:00 +18°C° 0 mm 2 mps 729 mmHg 84%
    07:00 +18°C° 0 mm 3 mps 729 mmHg 80%
    08:00 +19°C° 0 mm 3 mps 730 mmHg 74%
    09:00 +20°C° 0 mm 3 mps 730 mmHg 68%
    10:00 +21°C° 0 mm 4 mps 730 mmHg 62%
    11:00 +22°C° 0 mm 4 mps 730 mmHg 56%
    12:00 +23°C° 0 mm 4 mps 730 mmHg 51%
    13:00 +25°C° 0 mm 4 mps 730 mmHg 46%
    14:00 +25°C° 0 mm 3 mps 730 mmHg 45%
    15:00 +25°C° 0 mm 3 mps 730 mmHg 43%
    16:00 +25°C° 0 mm 3 mps 730 mmHg 42%
    17:00 +22°C° 0 mm 3 mps 730 mmHg 46%
    18:00 +21°C° 0 mm 2 mps 730 mmHg 51%
    19:00 +20°C° 0 mm 1 mps 730 mmHg 55%
    20:00 +19°C° 0 mm 1 mps 730 mmHg 57%
    21:00 +18°C° 0 mm 1 mps 730 mmHg 58%
    22:00 +16°C° 0 mm 1 mps 731 mmHg 60%
    23:00 +15°C° 0 mm 1 mps 731 mmHg 60%

    22 August, Wednesday

    Time Temperature Precipitation Wind Pressure Humidity
    00:00 +15°C° 0 mm 1 mps 731 mmHg 61%
    01:00 +15°C° 0 mm 1 mps 731 mmHg 61%
    02:00 +14°C° 0 mm 1 mps 731 mmHg 62%
    03:00 +14°C° 0 mm 1 mps 731 mmHg 63%
    04:00 +14°C° 0 mm 1 mps 730 mmHg 63%
    05:00 +15°C° 0 mm 1 mps 731 mmHg 61%
    06:00 +18°C° 0 mm 1 mps 731 mmHg 58%
    07:00 +19°C° 0 mm 1 mps 731 mmHg 55%
    08:00 +21°C° 0 mm 1 mps 731 mmHg 50%
    09:00 +23°C° 0 mm 1 mps 731 mmHg 45%
    10:00 +25°C° 0 mm 2 mps 731 mmHg 40%
    11:00 +26°C° 0 mm 2 mps 731 mmHg 38%
    12:00 +27°C° 0 mm 2 mps 731 mmHg 36%
    13:00 +27°C° 0 mm 2 mps 731 mmHg 35%
    14:00 +28°C° 0 mm 1 mps 730 mmHg 35%
    15:00 +28°C° 0 mm 1 mps 730 mmHg 35%
    16:00 +28°C° 0 mm 1 mps 730 mmHg 35%
    17:00 +26°C° 0 mm 1 mps 730 mmHg 42%
    18:00 +24°C° 0 mm 1 mps 729 mmHg 48%
    19:00 +22°C° 0 mm 1 mps 729 mmHg 54%
    20:00 +21°C° 0 mm 1 mps 729 mmHg 56%
    21:00 +20°C° 0 mm 1 mps 729 mmHg 59%
    22:00 +19°C° 0 mm 1 mps 729 mmHg 61%
    23:00 +19°C° 0 mm 1 mps 729 mmHg 62%

    23 August, Thursday

    Time Temperature Precipitation Wind Pressure Humidity
    00:00 +18°C° 0 mm 1 mps 729 mmHg 62%
    01:00 +18°C° 0 mm 1 mps 729 mmHg 63%
    02:00 +18°C° 0 mm 1 mps 729 mmHg 64%
    03:00 +18°C° 0 mm 1 mps 729 mmHg 64%
    04:00 +18°C° 0 mm 1 mps 729 mmHg 65%
    05:00 +19°C° 0 mm 1 mps 729 mmHg 62%
    06:00 +20°C° 0 mm 1 mps 729 mmHg 59%
    07:00 +22°C° 0 mm 1 mps 729 mmHg 56%
    08:00 +24°C° 0 mm 1 mps 729 mmHg 51%
    09:00 +26°C° 0 mm 1 mps 729 mmHg 45%
    10:00 +28°C° 0 mm 1 mps 729 mmHg 40%
    11:00 +29°C° 0 mm 1 mps 729 mmHg 38%
    12:00 +30°C° 0 mm 1 mps 729 mmHg 36%
    13:00 +30°C° 0 mm 1 mps 728 mmHg 35%
    14:00 +30°C° 0 mm 1 mps 728 mmHg 35%
    15:00 +30°C° 0 mm 1 mps 728 mmHg 36%
    16:00 +29°C° 0 mm 1 mps 727 mmHg 37%
    17:00 +28°C° 0 mm 1 mps 727 mmHg 42%
    18:00 +26°C° 0 mm 1 mps 727 mmHg 48%
    19:00 +24°C° 0 mm 2 mps 726 mmHg 53%
    20:00 +23°C° 0 mm 2 mps 726 mmHg 56%
    21:00 +21°C° 0 mm 2 mps 726 mmHg 58%
    22:00 +20°C° 0 mm 2 mps 726 mmHg 60%
    23:00 +20°C° 0 mm 2 mps 726 mmHg 61%
    Show more